www.pogodaiklimat.ru

Погода и климат >> Архив погоды >> Россия >> Дагестан >> Изберг


ПОГОДА в Изберге

  • Прогноз погоды в Изберге
  • Монитор погоды в Изберге
  • Климат города

АРХИВ ПОГОДЫ в Изберге

Время (UTC), дата Ветер
(напр.,м/с)
 
Видим.   Явления Облачность Т
(С)
Тd
(С)
f
(%)
Тe
(С)
Тes
(С)
Комфортность P
(гПа)
Po
(гПа)
Тmin
(С)
Tmax
(С)
R
(мм)
R24
(мм)
S
(см)
06 17.06 СЗ 6 20 км 9/1 600 м
[Cu med, cong Ac und Ci fib]
+24.8 +17.8 65 +29 +32 душно 1007.4 1009.5
09 17.06 С 6
{11}
20 км 8/3 600 м
[Cb calv Ac trans Cc]
+25.0 +20.1 74 +31 +34 очень
душно
1007.0 1009.1
12 17.06 С 5 20 км 9/8 600 м
[Cb calv Ci ing]
+23.5 +19.1 76 +28 +29 душно 1007.2 1009.3
15 17.06 СЗ 4 20 км 10/9 600 м
[Cb calv Ac trans]
+23.1 -21.3 4 +20 +20 1008.2 1010.3 +26.6
18 17.06 СЗ 3 20 км в посл. час ливневой дождь 10/10 600 м
[Cb calv]
+21.5 +18.5 83 +26 +26 душно 1009.1 1011.2
21 17.06 СЗ 3 20 км 10/4 600 м
[Cu hum Ac trans Ci fib]
+20.6 +13.5 64 +23 +23 комфорт 1009.2 1011.3
00 18.06 З 3 20 км 6/3 600 м
[Cu hum Ci fib]
+19.6 +13.5 68 +21 +21 комфорт 1009.0 1011.1
03 18.06 СЗ 4 20 км 8/1 600 м
[Cu hum Ci]
+21.6 +13.0 58 +24 +25 комфорт 1008.8 1010.9 +16.4
06 18.06 С 5 50 км 3/0
[Ac trans Ci fib]
+24.8 +13.7 50 +27 +33 жарко 1008.8 1010.9
09 18.06 С 6 50 км 4/0
[Ac lent Ci]
+24.3 +16.9 63 +28 +35 душно 1009.0 1011.1
12 18.06 С 4 50 км 6/3 600 м
[Cu med, cong Ac trans Ci fib]
+24.1 +15.0 57 +27 +31 жарко 1009.4 1011.4
15 18.06 С 2 50 км 9/3 600 м
[Cu hum Ac cast Ci fib]
+23.3 -21.2 4 +20 +20 1009.8 1011.9 +24.9
18 18.06 ЮЗ 2 20 км 6/0
[Ac trans Ci fib]
+19.5 -23.8 4 +19 +19 1010.8 1012.9
21 18.06 З 2 20 км ясно +17.7 -25.1 4 +18 +18 1009.3 1011.5
00 19.06 ЮЗ 3 20 км 8/3 600 м
[Cu hum Ac und]
+17.6 +12.6 72 +18 +18 1010.1 1012.2
03 19.06 ЮЗ 2 50 км 10/3 600 м
[Cu med, cong Ac cast]
+19.8 +12.7 64 +22 +22 комфорт 1010.8 1012.9 +16.9
06 19.06 С 3 50 км 10/8 600 м
[Cb calv Ac lent]
+22.3 +14.3 61 +26 +26 жарко 1012.1 1014.2
09 19.06 С 4 50 км 10/4 600 м
[Cb calv Ac lent]
+23.0 +15.0 61 +27 +29 душно 1012.4 1014.5
12 19.06 С 4 50 км 8/1 600 м
[Cu med, cong Ac und]
+24.0 +14.2 54 +26 +30 жарко 1012.5 1014.6
15 19.06 СВ 1 50 км 9/0
[Ac und]
+23.0 +14.6 59 +27 +27 душно 1012.0 1014.1 +24.8
18 19.06 Ю 1 20 км 10/0
[Ac und]
+21.8 +15.4 67 +25 +25 комфорт 1012.9 1015.0
21 19.06 Ю 3 20 км 10/0
[Ac und]
+21.2 +21.8 100 +27 +27 душно 1012.5 1014.7
00 20.06 ЮЗ 2 20 км 8/0
[Ac und]
+19.2 +11.5 61 +21 +21 комфорт 1012.8 1014.9
03 20.06 ЮЗ 1 50 км 10/0
[Ac und]
+21.4 +13.0 59 +24 +25 комфорт 1013.4 1015.5 +18.0
06 20.06 10 км слабый ливневой дождь н/о +22.4 +16.5 69 +27 +27 душно 1014.0 1016.1
09 20.06 СВ 3 50 км {ливн. осадки} 8/3 600 м
[Cu hum Ac trans Ci fib]
+24.8 +14.2 52 +27 +35 жарко 1014.3 1016.3
12 20.06 В 3 50 км {ливн. осадки} 9/8 600 м
[Cb calv Ci]
+23.6 +16.2 63 +27 +29 жарко 1014.6 1016.7
15 20.06 ЮВ 3 50 км 8/6 600 м
[Cb calv Ac cast Ci]
+23.8 -20.8 4 +21 +21 комфорт 1013.8 1015.9 +25.3 0.3
18 20.06 З 1 20 км 6/0
[Ci]
+19.7 -23.6 4 +20 +20 1013.9 1016.0
21 20.06 СЗ 1 20 км 9/0
[Ci]
+17.8 -24.9 4 +19 +19 1013.6 1015.7
00 21.06 ЮЗ 4 20 км 10/0
[Cs]
+17.3 +10.6 65 +17 +17 1013.5 1015.7
03 21.06 ЮЗ 3 50 км 3/0
[Ci fib]
+22.7 +17.4 72 +28 +29 душно 1014.1 1016.2 +17.3
06 21.06 ЮВ 3 50 км ясно +26.3 +19.2 65 +32 +43 очень
душно
1014.2 1016.3
09 21.06 ЮВ 3 50 км ясно +26.9 +19.9 66 +33 +49 очень
душно
1013.6 1015.7
12 21.06 ЮВ 5 50 км ясно +27.6 +15.5 48 +31 +37 душно 1012.8 1014.9
15 21.06 ЮВ 3 50 км ясно +25.6 +17.8 62 +30 +31 душно 1012.1 1014.2 +28.0
18 21.06 ЮЗ 3 20 км ясно +24.4 +7.8 35 +25 +25 комфорт 1011.9 1014.0
21 21.06 ЮЗ 4 20 км ясно +24.4 +3.6 26 +24 +24 комфорт 1010.3 1012.4
00 22.06 штиль 0 20 км ясно +24.4 +3.6 26 +24 +24 комфорт 1009.9 1012.0
03 22.06 С 2 50 км 1/0
[Ci fib]
+25.4 +18.3 65 +30 +32 душно 1010.2 1012.3 +21.4
06 22.06 СВ 1 50 км 1/0
[Ac trans]
+27.4 +14.2 44 +30 +44 жарко 1010.7 1012.8
09 22.06 ЮВ 3 50 км 1/1 600 м
[Cu med, cong]
+28.6 +19.4 58 +34 +49 очень
душно
1009.7 1011.8
12 22.06 ЮВ 4 50 км 1/1 600 м
[Cu hum]
+27.2 +19.9 64 +33 +40 очень
душно
1008.6 1010.7
15 22.06 ЮВ 4 50 км 3/3 600 м
[Cu hum]
+26.1 -19.2 4 +22 +23 комфорт 1007.8 1009.9 +29.3
18 22.06 Ю 2 20 км ясно +24.2 -20.5 4 +21 +21 комфорт 1008.4 1010.5
21 22.06 ЮЗ 4 20 км ясно +23.9 -20.7 4 +21 +21 комфорт 1007.7 1009.8
00 23.06 ЮЗ 2 20 км ясно +19.7 -23.7 4 +20 +20 1007.8 1010.0
03 23.06 ЮЗ 1 50 км ясно +23.2 -21.2 4 +20 +22 1008.8 1010.9 +18.6
06 23.06 ЮВ 4 20 км ясно +26.2 +18.7 63 +31 +40 очень
душно
1008.9 1011.0
09 23.06 ЮВ 5 50 км 1/0
[Ac lent]
+26.7 +20.2 68 +33 +43 очень
душно
1008.5 1010.6
12 23.06 В 4 50 км 3/0
[Ac lent Cc]
+26.4 +19.8 67 +32 +39 очень
душно
1008.0 1010.0
15 23.06 ЮВ 4 50 км 6/3 600 м
[Cu hum Ci]
+24.6 +21.0 80 +31 +31 очень
душно
1008.2 1010.3 +27.3
18 23.06 Ю 2 20 км 8/3 600 м
[Cu hum Ac trans Cs]
+22.4 +16.9 71 +27 +27 душно 1008.9 1011.0
21 23.06 ЮВ 1 20 км 8/0
[Cs]
+21.1 +14.7 67 +24 +24 комфорт 1008.4 1010.5
00 24.06 ЮЗ 2 20 км 8/0
[Ci]
+19.4 +12.2 63 +21 +21 комфорт 1008.4 1010.5
03 24.06 СВ 1 50 км 8/0
[Ac trans Cs]
+23.3 +16.6 66 +28 +30 душно 1009.4 1011.5 +19.0

 

Местоположение метеостанции Изберг (Дагестан, Россия): широта 42.53 долгота 47.92 высота над уровнем моря -16 м.

В архиве по умолчанию представлена погода в Изберге за последнюю неделю. Архивные данные за месяц целиком и за предыдущие месяцы, начиная с января 2011 года, Вы можете получить, выбрав интересующий диапазон дат из раскрывающегося списка и нажав кнопку "Ввод!".


*Определитесь, кто Вы:
робот инопланетянин человек

Внимание! Время в таблицах - всемирное. Для получения местного времени необходимо прибавить поправку, которая в Изберге равна 3 ч.

Смотрите также архив погоды в соседних городах и на ближайших метеорологических станциях:

Погода в Сергокале (Дагестан, Россия) (22 км)
Погода в Дербенте (Дагестан, Россия) (60 км)
Погода в Махачкале (Дагестан, Россия) (65 км)
Погода в Куппе (Дагестан, Россия) (68 км)
Погода в Буйнакске (Дагестан, Россия) (73 км)
Погода в Гунибе (Дагестан, Россия) (79 км)
Погода в Кумухе (Дагестан, Россия) (80 км)
Погода в Касумкенте (Дагестан, Россия) (98 км)
Погода в Хунзахе (Дагестан, Россия) (100 км)
Погода в Ахты (Дагестан, Россия) (119 км)

Пояснения к столбцам:

Ветер - указаны скорость ветра в м/с - средняя за 10 мин, порывы в срок и между сроками (в фигурных скобках) и направление, откуда дует ветер: С - северный, СВ - северо-восточный, В - восточный, ЮВ - юго-восточный, Ю - южный, ЮЗ - юго-западный, З - западный, СЗ - северо-западный.
Видимость - горизонтальная дальность видимости в метрах или километрах. При видимости от 1 до 10 км при отсутствии осадков обычно наблюдается дымка, при ухудшении видимости до 1 км и менее - туман. В сухую погоду видимость может ухудшаться дымом, пылью или мглою.
Явления - указаны атмосферные явления, наблюдавшиеся в срок или в последний час перед сроком; фигурными скобками обозначены явления, наблюдавшиеся между сроками (за 1-3 часа до срока); квадратными скобками обозначены град или гололедные отложения с указанием их диаметра в мм.
Облачность - указаны через наклонную черту общая и нижняя облачность в баллах и высота нижней границы облаков в метрах; квадратными скобками обозначены формы облаков: Ci - перистые, Cs - перисто-слоистые, Cc - перисто-кучевые, Ac - высококучевые, As - высокослоистые, Sc - слоисто-кучевые, Ns - слоисто-дождевые, Cu - кучевые, Cb - кучево-дождевые. Подробнее классификацию облаков см. в Атласе облаков (PDF).
T - Температура воздуха - температура, измеренная на высоте 2 м над землей.
Td - Температура точки росы - температура, при понижении до которой содержащийся в воздухе водяной пар достигнет насыщения.
f - Относительная влажность воздуха - влажноcть воздуха, измеренная на высоте 2 м над землей.
Te - Эффективная температура - температура, которую ощущает одетый по сезону человек в тени. Характеристика душности погоды. При расчете учитывается влияние влажности воздуха и скорости ветра на теплоощущения человека.
Tes - Эффективная температура на солнце - температура, которую ощущает человек, с поправкой на солнечный нагрев. Характеристика знойности погоды. Зависит от высоты солнца над горизонтом, облачности и скорости ветра. Ночью, в пасмурную погоду, а также при ветре 12 м/с и более поправка равна нулю.
P - Атмосферное давление - приведенное к уровню моря атмосферное давление.
Po - Атмосферное давление - измеренное на уровне метеостанции атмосферное давление.
Tmin - Минимальная температура - минимум температуры воздуха на высоте 2 м над землей.
Tmax - Максимальная температура - максимум температуры воздуха на высоте 2 м над землей.
R - Количество осадков - Количество выпавших осадков за период времени, мм. При наведении курсора мыши на число - период времени, за который выпало указанное количество осадков.
R24 - Количество осадков - Количество выпавших осадков за 24 часа, мм.
S - Снежный покров - Высота снежного покрова, см. При наведении курсора мыши на число - состояние снежного покрова и степень покрытия местности в баллах.